Regional Weather Roundup
Issued by NWS State College, PA

Home | Current Version | Previous Version | Text Only | Print | Product List | Glossary On
Versions: 1 2 3 4 5 6 7 8 9 10 11 12 13 14 15 16 17 18 19 20 21 22 23 24 25 26 27 28 29 30 31 32 33 34 35 36 37 38 39 40 41 42 43 44 45 46 47 48 49 50
000
ASUS41 KCTP 180410
RWRCTP

REGIONAL WEATHER ROUNDUP
NATIONAL WEATHER SERVICE STATE COLLEGE PA
1200 AM EDT SAT APR 18 2015

Note: "fair" indicates few or no clouds below 12,000 feet with no
significant weather and/or obstructions to visibility.

* = STATION THAT DOES NOT REPORT PRECIPITATION /E.G. RAIN...SNOW...ETC/
    THUNDER OR FOG.

PAZ002>004-007>009-013>016-020>023-029>032-180500-
WESTERN PENNSYLVANIA

CITY           SKY/WX    TMP DP  RH WIND       PRES   REMARKS
ERIE           CLEAR     50  45  83 CALM      30.03F
MEADVILLE      CLEAR     53  44  71 CALM      30.05S
FRANKLIN*      CLEAR     52  43  71 CALM      30.07S
NEW CASTLE     FAIR      53  47  80 CALM      30.06F
BEAVER COUNTY  NOT AVBL
BUTLER*        PTCLDY    52  45  76 NE3       30.08R
PITTSBURGH INT PTCLDY    58  47  66 CALM      30.05S
PITTSBURGH     PTCLDY    57  44  62 N6        30.04S
INDIANA*       CLEAR     48  46  93 E3        30.09S
LATROBE        PTCLDY    50  50 100 CALM      30.07S
WASHINGTON CO* PTCLDY    48  46  93 CALM      30.07S
$$

PAZ004>006-010>012-017>019-024>028-033>037-041-042-045-046-049>053-180500-
CENTRAL PENNSYLVANIA

CITY           SKY/WX    TMP DP  RH WIND       PRES   REMARKS
BRADFORD       CLEAR     45  40  82 CALM      30.05S
DUBOIS         CLEAR     56  44  64 NW5       30.05S
CLEARFIELD     CLEAR     53  47  79 CALM      30.05R
JOHNSTOWN      PTCLDY    55  45  68 N7        30.06R
ALTOONA        PTCLDY    53  46  77 SE3       30.05R
STATE COLLEGE  CLEAR     57  46  65 NW3       30.03S
WILLIAMSPORT   PTCLDY    55  49  80 CALM      30.00R
SELINSGROVE    CLEAR     51  47  86 CALM      30.00R
FT INDIANTOWN  CLEAR     65  48  54 NW8       29.99R
CAPITAL CITY   CLEAR     55  49  80 W5        29.99S
HARRISBURG     PTCLDY    57  49  74 SE3       29.99R
YORK           PTCLDY    48  47  96 CALM      30.00R
$$

PAZ038>040-043-044-047-048-054-055-060>062-067>071-180500-
EASTERN PENNSYLVANIA

CITY           SKY/WX    TMP DP  RH WIND       PRES   REMARKS
SCRANTON       PTCLDY    55  49  80 E7        30.00S
MOUNT POCONO   PTCLDY    48  46  93 NW3       30.01S
ALLENTOWN      CLEAR     56  50  80 NW3       29.98R
QUAKERTOWN*    MOCLDY    54  52  94 CALM      29.99R
READING        CLEAR     60  51  72 CALM      29.97S
LANCASTER      CLEAR     57  50  77 W5        29.98S
COATESVILLE    CLEAR     55  52  88 W6        30.00S
POTTSTOWN      CLEAR     55  52  89 CALM      29.99R
BLUE BELL      CLEAR     55  54  94 CALM      29.97R
DOYLESTOWN     CLOUDY    56  53  90 SW3       29.97S
WILLOW GROVE   NOT AVBL
NORTH PHILA    CLEAR     61  52  72 W3        29.98S
PHILADELPHIA   PTCLDY    64  58  80 CALM      29.98R
$$


USA.gov is the U.S. government's official web portal to all federal, state and local government web resources and services.